This is the latest recevied weather packets stored in our database for station/object KJ4EWA. If no packets are shown the sender has not sent any weather packets the latest 10 day(s).
| Time | Temp. | Humidity | Pressure | Rain* | Wind** | Luminosity | Snow |
|---|---|---|---|---|---|---|---|
| 1777728402 | 12.78° C | 99% | 1016.8 hPa | 0 mm | - | 102 W/m² | - |
| 1777728099 | 12.78° C | 99% | 1016.7 hPa | 0.51 mm | - | 97 W/m² | - |
| 1777727796 | 12.78° C | 99% | 1016.6 hPa | 0.51 mm | - | 65 W/m² | - |
| 1777727493 | 12.22° C | 99% | 1016.7 hPa | 0 mm | - | 73 W/m² | - |
| 1777727190 | 12.78° C | 99% | 1016.4 hPa | 0 mm | - | 51 W/m² | - |
| 1777726888 | 12.22° C | 99% | 1016.4 hPa | 0 mm | - | 38 W/m² | - |
| 1777726584 | 12.22° C | 99% | 1016.2 hPa | 0 mm | - | 34 W/m² | - |
| 1777726282 | 12.78° C | 99% | 1015.9 hPa | 0.51 mm | - | 43 W/m² | - |
| 1777725978 | 12.22° C | 99% | 1015.8 hPa | 0.51 mm | - | 53 W/m² | - |
| 1777725675 | 12.22° C | 99% | 1015.6 hPa | 0 mm | - | 37 W/m² | - |
| 1777725374 | 12.22° C | 99% | 1015.5 hPa | 0 mm | - | 54 W/m² | - |
| 1777725070 | 12.22° C | 99% | 1015.6 hPa | 0 mm | - | 44 W/m² | - |
| 1777724767 | 12.22° C | 99% | 1015.8 hPa | 0 mm | - | 22 W/m² | - |
| 1777724463 | 12.22° C | 99% | 1015.3 hPa | 0 mm | - | 22 W/m² | - |
| 1777724161 | 12.22° C | 99% | 1015.7 hPa | 0.51 mm | - | 10 W/m² | - |
| 1777723853 | 12.22° C | 99% | 1015.5 hPa | 0.51 mm | - | 22 W/m² | - |
| 1777723549 | 11.67° C | 99% | 1015.4 hPa | 0 mm | - | 11 W/m² | - |
| 1777723246 | 11.67° C | 99% | 1015.5 hPa | 0 mm | - | 12 W/m² | - |
| 1777722945 | 12.22° C | 99% | 1015.7 hPa | 0 mm | - | 16 W/m² | - |
| 1777722640 | 11.67° C | 99% | 1015.8 hPa | 0 mm | - | 11 W/m² | - |
| 1777722336 | 11.67° C | 99% | 1016 hPa | 0 mm | - | 7 W/m² | - |
| 1777722033 | 11.67° C | 99% | 1016 hPa | 0 mm | - | 4 W/m² | - |
| 1777721731 | 11.67° C | 99% | 1016 hPa | 0 mm | - | 1 W/m² | - |
| 1777721430 | 11.67° C | 99% | 1015.6 hPa | 0 mm | - | 1 W/m² | - |
| 1777721127 | 11.67° C | 99% | 1015.3 hPa | 0 mm | - | 0 W/m² | - |
* Rain latest hour (hover to see other rain measurements)
** Current wind speed in m/s (hover to see current wind gust speed)